Regional Weather Roundup
Issued by NWS

Home | Current Version | Previous Version | Text Only | Print | Product List | Glossary Off
Versions: 1 2 3 4 5 6 7 8 9 10 11 12 13 14 15 16 17 18 19 20 21 22 23 24 25 26 27 28 29 30 31 32 33 34 35 36 37 38 39 40 41 42 43 44 45 46 47 48 49 50

000
ASUS43 KMKX 221000
RWRWI

WISCONSIN REGIONAL WEATHER ROUNDUP
NATIONAL WEATHER SERVICE MILWAUKEE/SULLIVAN WI
500 AM CDT FRI SEP 22 2017

NOTE: "FAIR" INDICATES FEW OR NO CLOUDS BELOW 12,000 FEET WITH NO
SIGNIFICANT WEATHER AND/OR OBSTRUCTIONS TO VISIBILITY.

WIZ001-002-006>008-014>016-023>028-221100-
NORTHWEST WISCONSIN

CITY           SKY/WX    TMP DP  RH WIND       PRES   REMARKS
SUPERIOR ARPT  CLOUDY    60  59  99 NE6       29.87S
ASHLAND        CLOUDY    66  63  90 S7        29.88R
HAYWARD        PTCLDY    69  65  86 SW6       29.90R
SIREN          CLEAR     73  66  77 S10       29.86R
CUMBERLAND     CLEAR     66  63  88 SE5       29.89S
RICE LAKE      CLEAR     68  65  90 SE3       29.91S
CHETEK         CLEAR     68  66  94 MISG      29.91R
LADYSMITH      CLEAR     70  66  86 SE5       29.95R
EAU CLAIRE     NOT AVBL
MENOMONIE      PTCLDY    69  67  93 E3        29.90R
NEW RICHMOND   MOCLDY    74  67  77 S9        29.87S
OSCEOLA        CLOUDY    75  68  77 S6        29.88S
$$

WIZ003>005-009-010-017-018-221100-
NORTH CENTRAL WISCONSIN

CITY           SKY/WX    TMP DP  RH WIND       PRES   REMARKS
MANITOWISH WTR PTCLDY    65  65 100 S5        29.97R
ARBOR VITAE    CLEAR     69  66  90 S6        29.98S
WOODRUFF       CLEAR     69  66  90 S6        29.98S
RHINELANDER    MOCLDY    70  67  90 S6        30.00S
EAGLE RIVER    CLOUDY    67  66  97 S3        29.99S
LAND O LAKES   PTCLDY    68  65  91 S3        30.00S
PHILLIPS       CLEAR     68  67  96 S7        29.95R
TOMAHAWK       CLEAR     65  63  93 CALM      29.98S
MEDFORD        PTCLDY    66  64  93 S10       29.97S
MERRILL        MOCLDY    68  67  96 S5        29.99S
$$

WIZ029-030-035-036-043>047-221100-
CENTRAL WISCONSIN

CITY           SKY/WX    TMP DP  RH WIND       PRES   REMARKS
WAUSAU         MOCLDY    66  65  96 SE6       29.98S
MOSINEE        PTCLDY    64  64 100 SE5       30.00S
MARSHFIELD     CLOUDY    69  65  86 S7        29.98S
STEVENS POINT  PTCLDY    62  62 100 CALM      30.00S
WAUPACA        CLEAR     65  65  97 CALM      30.00S FOG
WAUTOMA        MOCLDY    63  62  97 CALM      30.00S
WISC RAPIDS    CLEAR     67  66  97 S3        30.00R
CAMP DOUGLAS   NOT AVBL
$$

WIZ011>013-019>022-031-037>040-048>050-221100-
NORTHEAST WISCONSIN

CITY           SKY/WX    TMP DP  RH WIND       PRES   REMARKS
ANTIGO         CLEAR     65  65 100 S7        30.02S FOG
SHAWANO        FOG       65  64  95 CALM      30.00R VSB 1/2
OCONTO         CLEAR     60  60  99 CALM      29.99S
STURGEON BAY   CLEAR     69  67  93 S8        30.00S FOG
GREEN BAY      CLEAR     69  68  96 S5        30.01R FOG
MANITOWOC      CLEAR     65  64  97 SE5       30.03R FOG
APPLETON       CLEAR     68  68 100 S3        30.00S
CLINTONVILLE   FOG       63  61  94 CALM      30.00S VSB 3/4
OSHKOSH        CLEAR     69  67  93 S6        30.01R
$$

WIZ032>034-041-042-053>061-221100-
SOUTHWEST WISCONSIN

CITY           SKY/WX    TMP DP  RH WIND       PRES   REMARKS
LA CROSSE      CLEAR     73  69  87 S6        29.92
SPARTA         PTCLDY    73  67  80 CALM      29.96R
VIROQUA        CLEAR     71  69  94 CALM      29.97S
BOSCOBEL       CLEAR     73  68  84 SW3       29.97S
PRAIRIE DU CHI CLEAR     76  66  70 SE6       29.96R
PLATTEVILLE    CLEAR     72  70  96 S8        30.01S
$$

WIZ056-057-062-063-064-067-068-221100-
SOUTH CENTRAL WISCONSIN

CITY           SKY/WX    TMP DP  RH WIND       PRES   REMARKS
REEDSBURG      CLEAR     73  68  84 S6        29.98S
BARABOO/DELLS  CLEAR     74  65  74 SW10      29.99S
LONE ROCK      NOT AVBL
MINERAL POINT  CLEAR     70  70 100 SE7       30.01S
MADISON        CLEAR     73  68  84 S3        30.01R
MIDDLETON      CLEAR     74  68  83 CALM      30.01S
WATERTOWN      CLEAR     69  69 100 CALM      30.02S
MONROE         CLEAR     70  66  88 S12       30.02R
JANESVILLE     CLEAR     70  70 100 S6        30.02R
$$

WIZ051-052-058>065-066-070>072-221100-
SOUTHEAST WISCONSIN

CITY           SKY/WX    TMP DP  RH WIND       PRES   REMARKS
MILWAUKEE      CLEAR     71  69  93 S3        30.04R FOG
WAUKESHA       CLEAR     70  66  88 S6        30.05R
MILWAUKEE/TIMM   N/A     63  61  94 CALM      30.04S FOG
RACINE         CLEAR     71  70  96 S3        30.06R FOG
BURLINGTON     FOG       62  62 100 CALM      30.04R VSB 1/4
KENOSHA        CLEAR     70  67  90 S5        30.05R
FOND DU LAC    CLEAR     69  65  86 S6        30.02R
SHEBOYGAN      MOCLDY    64  64 100 S3        30.03R FOG
WEST BEND        N/A     63  63 100 CALM      30.04R FOG
JUNEAU         CLEAR     69  67  92 S6        30.04R
$$

LSZ147-162-221100-
LAKE SUPERIOR

STATION/POSITION TIME  TEMP    WIND        PRES    WAVE
                       AIR SEA DIR/SP/G            HT/PER
                 (UTC) (F)     (DEG/KT/KT) (MB)    (FT/S)
W MID LAKE BUOY  0850   59 55  130/  8/  8 1011.5F   1/ 4
DEVILS ISLAND    0900   62      50/  5/  5 1011.3R
PORT WING        0900   61     340/  3/ 22 1011.9
SAXON HARBOR     0940   77     190/  9/ 19 1011.2R
$$

LMZ867-665-643>646-221100-
LAKE MICHIGAN

STATION/POSITION TIME  TEMP    WIND        PRES    WAVE
                       AIR SEA DIR/SP/G            HT/PER
                 (UTC) (F)     (DEG/KT/KT) (MB)    (FT/S)
S GREEN BAY BUOY 0930   69 67  200/  6/  8 1015.5R
N MID LAKE BUOY  0850   69 65  170/  8/ 10 1016.4S   0
NORTHPORT PIER   0940   67     150/  5/  9 1015.9R
KEWAUNEE LAKESHO 0930   63     180/  4/  5 1015.6R
SHEBOYGAN LAKESH 0900   70     190/  5/  6 1016.1R
PORT WASHINGTON  0930   69     190/  1/  2 1017.6R
ATWATER BUOY     0839   68 66  190/  4/  4 1017.0R
MILWAUKEE LAKESH 0930   70     170/  3/  3   N/A
S MID LAKE BUOY  0850   72 69  160/ 10/ 10 1016.8R   1
KENOSHA   LAKESH 0900   73     180/  6/  7 1016.9
$$

TC  - TEMPERATURE IN CELSIUS
VSB - VISIBILITY IN STATUTE MILES
WCI - WIND CHILL INDEX
HX  - HEAT INDEX





USA.gov is the U.S. government's official web portal to all federal, state and local government web resources and services.